FW6365 Weather Reports


Display with metric or nautical units.
time (UTC)temp
F
wind
direction
speed
MPH
gust
MPH
rain 1hr
in
rain 24hr
in
rain mn
in
humidity
%
barometer
mb
20260904040049 53 0 0.0 1.0 0.00 0.36 0.35 95 1011.1
20260904035527 53 0 0.0 1.0 0.00 0.36 0.35 94 1011.1
20260904035028 53 0 0.0 1.0 0.00 0.36 0.35 94 1011.2
20260904034550 54 0 0.0 1.0 0.00 0.36 0.35 94 1011.0
20260904034027 54 57 0.0 1.0 0.00 0.36 0.35 94 1011.0
20260904033525 54 0 0.0 0.0 0.00 0.36 0.35 94 1010.8
20260904033050 54 0 0.0 0.0 0.00 0.36 0.35 94 1010.8
20260904032525 54 0 0.0 0.0 0.00 0.36 0.35 93 1010.8
20260904032026 54 0 0.0 1.0 0.00 0.36 0.35 93 1010.7
20260904031550 55 0 0.0 1.0 0.00 0.36 0.35 92 1010.6
20260904031025 55 0 0.0 1.0 0.00 0.36 0.35 92 1010.5
20260904030529 55 0 0.0 1.0 0.00 0.36 0.35 92 1010.4
20260904030053 55 0 0.0 1.0 0.00 0.36 0.35 92 1010.4
20260904025527 56 57 0.0 1.0 0.00 0.36 0.35 91 1010.5
20260904025027 56 0 0.0 0.0 0.00 0.36 0.35 91 1010.5
20260904024553 56 0 0.0 1.0 0.00 0.36 0.35 90 1010.5
20260904024023 56 0 0.0 1.0 0.00 0.36 0.35 89 1010.5
20260904023527 56 0 0.0 1.0 0.00 0.36 0.35 89 1010.5
20260904023049 57 0 0.0 2.0 0.00 0.36 0.35 87 1010.4
20260904022525 57 0 0.0 2.0 0.00 0.36 0.35 86 1010.4
20260904022028 58 0 0.0 1.0 0.00 0.36 0.35 85 1010.5
20260904021547 58 84 0.0 2.0 0.00 0.36 0.35 84 1010.4
20260904021028 59 0 1.0 2.0 0.00 0.36 0.35 82 1010.4
20260904020528 59 0 0.0 2.0 0.00 0.36 0.35 82 1010.5
20260904020055 59 121 0.0 8.0 0.00 0.36 0.35 81 1010.4
20260904015527 59 138 2.0 8.0 0.00 0.36 0.35 81 1010.4
20260904015029 59 86 3.0 8.0 0.00 0.36 0.35 81 1010.3
20260904014604 60 118 3.0 9.0 0.00 0.36 0.35 80 1010.2
20260904014023 60 160 5.0 9.0 0.00 0.36 0.35 79 1010.1
20260904013524 61 149 5.0 9.0 0.00 0.36 0.35 78 1010.1
20260904013048 61 180 4.0 13.0 0.00 0.36 0.35 79 1010.1
20260904012529 61 127 9.0 13.0 0.00 0.36 0.35 77 1010.0
20260904012025 61 167 8.0 13.0 0.00 0.36 0.35 77 1009.9
20260904011545 62 158 6.0 13.0 0.00 0.36 0.35 78 1010.1
20260904011030 61 209 3.0 8.0 0.00 0.36 0.35 81 1010.1
20260904010527 61 133 2.0 9.0 0.00 0.36 0.35 83 1010.0
20260904010104 60 109 4.0 12.0 0.00 0.36 0.35 84 1010.0
20260904005528 60 96 4.0 12.0 0.00 0.36 0.35 84 1010.1
20260904005025 61 100 7.0 12.0 0.00 0.36 0.35 82 1010.1
20260904004545 61 113 7.0 12.0 0.00 0.36 0.35 83 1010.1
20260904004027 62 156 8.0 12.0 0.00 0.36 0.35 83 1010.0
20260904003526 62 105 4.0 9.0 0.00 0.36 0.35 85 1010.1
20260904003050 61 111 5.0 11.0 0.00 0.36 0.35 85 1010.1
20260904002528 61 137 5.0 11.0 0.00 0.36 0.35 86 1010.2
20260904002024 60 119 4.0 12.0 0.00 0.36 0.35 85 1010.1
20260904001550 60 113 7.0 12.0 0.00 0.36 0.35 86 1010.3
20260904001023 60 106 4.0 11.0 0.00 0.36 0.35 86 1010.3
20260904000531 60 163 5.0 11.0 0.00 0.36 0.35 85 1010.4
20260904000058 60 103 5.0 11.0 0.00 0.36 0.35 85 1010.3
20260903235528 60 132 5.0 9.0 0.00 0.36 0.35 84 1010.5
20260903235026 60 138 4.0 7.0 0.00 0.36 0.35 84 1010.4
20260903234551 60 117 3.0 7.0 0.00 0.36 0.35 85 1010.4
20260903234027 60 165 1.0 7.0 0.00 0.36 0.35 85 1010.4
20260903233524 60 124 1.0 7.0 0.00 0.36 0.35 86 1010.4
20260903233059 60 188 4.0 8.0 0.00 0.36 0.35 85 1010.4
20260903232525 60 122 3.0 9.0 0.00 0.36 0.35 85 1010.4
20260903232028 60 165 4.0 13.0 0.00 0.36 0.35 86 1010.4
20260903231547 60 110 7.0 13.0 0.00 0.36 0.35 85 1010.4
20260903231023 60 169 5.0 12.0 0.00 0.36 0.35 85 1010.4
20260903230527 60 105 5.0 13.0 0.00 0.36 0.35 85 1010.4
20260903230051 60 146 7.0 13.0 0.01 0.36 0.35 85 1010.4
20260903225527 60 165 4.0 11.0 0.01 0.36 0.35 84 1010.4
20260903225027 60 123 6.0 11.0 0.02 0.36 0.35 84 1010.4
20260903224549 60 144 5.0 9.0 0.02 0.36 0.35 86 1010.4
20260903224024 60 139 5.0 8.0 0.02 0.36 0.35 86 1010.3
20260903223524 60 136 4.0 9.0 0.02 0.36 0.35 86 1010.3
20260903223048 59 144 5.0 11.0 0.02 0.36 0.35 86 1010.4
20260903222528 59 162 7.0 14.0 0.02 0.36 0.35 87 1010.4
20260903222026 58 161 8.0 14.0 0.02 0.36 0.35 87 1010.5
20260903221553 58 111 7.0 12.0 0.02 0.36 0.35 88 1010.6
20260903221026 58 135 7.0 12.0 0.02 0.36 0.35 89 1010.6
20260903220528 58 123 8.0 12.0 0.02 0.36 0.35 89 1010.5
20260903220053 58 140 4.0 10.0 0.01 0.35 0.34 91 1010.6
20260903215524 59 95 2.0 6.0 0.05 0.35 0.34 93 1010.6
20260903215023 59 71 1.0 4.0 0.04 0.34 0.33 93 1010.6
20260903214551 59 101 2.0 4.0 0.04 0.34 0.33 92 1010.5
20260903214027 59 0 0.0 2.0 0.04 0.34 0.33 92 1010.4
20260903213527 59 89 0.0 2.0 0.04 0.34 0.33 91 1010.6
20260903213045 59 78 0.0 4.0 0.04 0.34 0.33 90 1010.6
20260903212527 60 32 1.0 4.0 0.04 0.34 0.33 90 1010.5
20260903212026 60 9 2.0 4.0 0.04 0.34 0.33 89 1010.3
20260903211556 59 308 0.0 2.0 0.04 0.34 0.33 90 1010.4
20260903211025 59 299 0.0 1.0 0.05 0.34 0.33 89 1010.3
20260903210528 59 0 0.0 5.0 0.05 0.34 0.33 89 1010.3
20260903210106 59 0 1.0 5.0 0.05 0.34 0.33 87 1010.2
20260903205527 59 219 3.0 5.0 0.01 0.33 0.29 87 1010.3
20260903205026 59 223 1.0 5.0 0.01 0.33 0.29 88 1010.1
20260903204613 59 252 2.0 6.0 0.01 0.33 0.29 86 1010.0
20260903204027 59 207 3.0 8.0 0.01 0.33 0.29 84 1010.1
20260903203527 60 172 4.0 9.0 0.01 0.33 0.29 85 1010.1
20260903203051 61 186 5.0 9.0 0.01 0.33 0.29 86 1010.0
20260903202524 60 200 3.0 8.0 0.01 0.33 0.29 87 1009.9
20260903202027 60 201 3.0 7.0 0.01 0.33 0.29 88 1010.0
20260903201551 60 119 4.0 7.0 0.01 0.33 0.29 88 1010.0
20260903201028 60 144 3.0 8.0 0.00 0.32 0.28 87 1010.0
20260903200528 60 106 4.0 8.0 0.00 0.32 0.28 86 1010.0
20260903200052 60 131 4.0 8.0 0.00 0.32 0.28 87 1010.1
20260903195527 60 98 3.0 11.0 0.00 0.36 0.28 88 1010.1
20260903195024 60 120 5.0 11.0 0.00 0.36 0.28 87 1010.1
20260903194543 60 125 6.0 12.0 0.00 0.36 0.28 88 1010.2
20260903194027 60 133 7.0 15.0 0.00 0.36 0.28 89 1010.1
20260903193527 60 147 9.0 15.0 0.00 0.36 0.28 87 1010.0
20260903193053 60 171 7.0 14.0 0.00 0.36 0.28 89 1009.9
20260903192523 60 180 7.0 14.0 0.00 0.36 0.28 90 1010.1
20260903192024 60 157 4.0 11.0 0.00 0.36 0.28 90 1010.1
20260903191548 59 190 6.0 11.0 0.00 0.36 0.28 91 1010.1
20260903191027 59 128 5.0 11.0 0.00 0.36 0.28 90 1010.0
20260903190528 59 134 4.0 11.0 0.00 0.36 0.28 91 1010.1
20260903190047 59 154 4.0 13.0 0.00 0.36 0.28 93 1010.1
20260903185528 59 162 6.0 13.0 0.00 0.37 0.28 92 1010.1
20260903185028 59 126 6.0 12.0 0.00 0.37 0.28 92 1010.1
20260903184552 59 109 4.0 10.0 0.00 0.37 0.28 93 1010.1
20260903184029 58 103 6.0 10.0 0.00 0.37 0.28 93 1010.1
20260903183524 59 163 5.0 11.0 0.00 0.37 0.28 93 1010.1
20260903183050 58 205 4.0 15.0 0.00 0.37 0.28 93 1010.1
20260903182525 58 176 9.0 15.0 0.00 0.37 0.28 92 1010.1
20260903182024 58 181 8.0 17.0 0.00 0.37 0.28 93 1010.1
20260903181547 58 184 7.0 18.0 0.00 0.37 0.28 94 1010.1
20260903181029 58 195 9.0 18.0 0.00 0.37 0.28 93 1010.0
20260903180526 58 184 7.0 20.0 0.00 0.37 0.28 93 1010.1
20260903180050 58 161 9.0 20.0 0.00 0.37 0.28 93 1010.0
20260903175526 58 171 7.0 12.0 0.00 0.38 0.28 94 1010.0
20260903175026 58 165 7.0 12.0 0.00 0.38 0.28 94 1010.0
20260903174552 57 169 6.0 12.0 0.00 0.38 0.28 95 1009.9
20260903174029 57 128 7.0 11.0 0.00 0.38 0.28 95 1009.9
20260903173524 57 137 6.0 11.0 0.00 0.38 0.28 95 1009.8
20260903173050 57 138 5.0 10.0 0.00 0.38 0.28 95 1009.7
20260903172525 57 132 5.0 12.0 0.00 0.38 0.28 95 1009.8
20260903172027 57 129 6.0 14.0 0.00 0.38 0.28 95 1009.6
20260903171553 57 160 8.0 15.0 0.00 0.38 0.28 95 1009.6
20260903171026 57 152 9.0 15.0 0.00 0.38 0.28 95 1009.6
20260903170528 57 194 7.0 14.0 0.00 0.38 0.28 95 1009.5
20260903170051 57 164 8.0 14.0 0.00 0.38 0.28 96 1009.5
20260903165528 57 129 7.0 13.0 0.00 0.38 0.28 96 1009.5
20260903165025 57 149 8.0 13.0 0.00 0.38 0.28 96 1009.5
20260903164550 57 145 5.0 10.0 0.00 0.38 0.28 96 1009.5
20260903164025 57 148 6.0 10.0 0.00 0.38 0.28 96 1009.6
20260903163529 56 197 5.0 10.0 0.00 0.38 0.28 97 1009.4
20260903163049 56 159 6.0 10.0 0.00 0.38 0.28 96 1009.6
20260903162529 56 157 4.0 11.0 0.00 0.38 0.28 97 1009.6
20260903162030 56 171 6.0 11.0 0.00 0.38 0.28 97 1009.5
20260903161553 56 144 3.0 10.0 0.00 0.38 0.28 97 1009.6
20260903161027 56 161 4.0 10.0 0.00 0.38 0.28 97 1009.6
20260903160527 56 136 7.0 10.0 0.00 0.38 0.28 97 1009.6
20260903155525 56 149 4.0 9.0 0.02 0.38 0.28 97 1009.6
20260903155029 55 169 4.0 9.0 0.02 0.38 0.28 97 1009.6
20260903154548 55 174 3.0 8.0 0.02 0.38 0.28 97 1009.5
20260903154028 55 132 4.0 7.0 0.02 0.38 0.28 97 1009.4
20260903153528 55 165 2.0 6.0 0.03 0.38 0.28 97 1009.4
20260903153055 55 159 3.0 6.0 0.03 0.38 0.28 97 1009.3
20260903152529 55 152 2.0 5.0 0.03 0.38 0.28 97 1009.4
20260903152030 55 157 2.0 4.0 0.04 0.38 0.28 97 1009.4
20260903151548 55 135 1.0 4.0 0.04 0.38 0.28 97 1009.3
20260903151026 55 163 1.0 3.0 0.04 0.38 0.28 97 1009.4
20260903150525 54 240 0.0 1.0 0.04 0.38 0.28 97 1009.3
20260903150109 54 0 0.0 1.0 0.03 0.37 0.27 97 1009.3
20260903145525 54 227 0.0 1.0 0.02 0.36 0.26 97 1009.3
20260903145024 54 0 0.0 2.0 0.02 0.36 0.26 97 1009.2
20260903144557 54 0 0.0 3.0 0.02 0.36 0.26 97 1009.2
20260903144026 54 171 1.0 3.0 0.03 0.36 0.26 97 1009.1
20260903143527 54 157 0.0 2.0 0.02 0.35 0.25 97 1009.0
20260903143048 54 148 1.0 4.0 0.03 0.35 0.25 97 1008.8
20260903142524 54 155 1.0 6.0 0.04 0.35 0.25 97 1008.8
20260903142026 54 144 1.0 6.0 0.03 0.34 0.24 97 1008.8
20260903141551 54 134 3.0 9.0 0.04 0.34 0.24 97 1008.8
20260903141025 54 138 3.0 9.0 0.04 0.34 0.24 97 1008.8
20260903140525 54 112 6.0 10.0 0.05 0.34 0.24 97 1008.8
20260903140053 54 140 5.0 11.0 0.05 0.34 0.24 97 1008.7
20260903135526 54 140 6.0 11.0 0.05 0.34 0.24 97 1008.7
20260903135029 54 110 6.0 11.0 0.06 0.34 0.24 97 1008.7
20260903134555 54 118 6.0 9.0 0.06 0.34 0.24 97 1008.7
20260903134026 54 163 4.0 7.0 0.05 0.33 0.23 97 1008.7
20260903133524 54 176 4.0 9.0 0.05 0.33 0.23 97 1008.7
20260903133100 54 192 5.0 9.0 0.04 0.32 0.22 97 1008.7
20260903132527 54 167 4.0 9.0 0.04 0.31 0.21 97 1008.6
20260903132024 54 184 5.0 10.0 0.05 0.31 0.21 97 1008.6
20260903131550 54 172 4.0 10.0 0.05 0.30 0.20 97 1008.5
20260903131024 54 157 5.0 11.0 0.05 0.30 0.20 97 1008.4
20260903130524 55 117 5.0 11.0 0.04 0.29 0.19 96 1008.3
20260903130051 55 157 4.0 14.0 0.05 0.29 0.19 96 1008.3
20260903125524 55 155 7.0 14.0 0.05 0.29 0.19 97 1008.4
20260903125031 55 136 7.0 11.0 0.04 0.28 0.18 97 1008.4
20260903124552 55 147 6.0 12.0 0.04 0.28 0.18 97 1008.3
20260903124026 55 149 7.0 13.0 0.04 0.28 0.18 97 1008.3
20260903123526 55 130 7.0 15.0 0.05 0.28 0.18 97 1008.2
20260903123051 55 127 7.0 15.0 0.06 0.28 0.18 97 1008.3
20260903122524 55 145 5.0 14.0 0.06 0.27 0.17 97 1008.4
20260903122027 55 133 6.0 12.0 0.05 0.25 0.15 97 1008.3
20260903121549 55 137 4.0 9.0 0.06 0.25 0.15 97 1008.3
20260903121025 55 134 5.0 11.0 0.06 0.25 0.15 97 1008.2
20260903120524 55 124 5.0 11.0 0.06 0.24 0.14 97 1008.2
20260903120101 55 146 5.0 11.0 0.06 0.24 0.14 97 1008.3
20260903115524 55 123 3.0 9.0 0.07 0.24 0.14 97 1008.2
20260903115027 55 152 4.0 10.0 0.08 0.24 0.14 97 1008.1
20260903114554 55 163 5.0 10.0 0.08 0.24 0.14 97 1008.3
20260903114026 55 146 3.0 7.0 0.09 0.24 0.14 97 1008.3
20260903113526 55 140 3.0 7.0 0.09 0.23 0.13 97 1008.3
20260903113050 55 196 3.0 8.0 0.08 0.22 0.12 97 1008.4
20260903112526 55 149 4.0 10.0 0.08 0.21 0.11 97 1008.4
20260903112029 55 106 5.0 10.0 0.07 0.20 0.10 97 1008.3
20260903111548 55 169 7.0 9.0 0.07 0.19 0.09 97 1008.4
20260903111024 55 153 5.0 11.0 0.07 0.19 0.09 97 1008.3
20260903110529 55 126 5.0 11.0 0.06 0.18 0.08 97 1008.3
20260903110052 55 144 4.0 10.0 0.06 0.18 0.08 97 1008.2
20260903105526 55 146 4.0 10.0 0.05 0.17 0.07 97 1008.2
20260903105029 55 134 3.0 12.0 0.04 0.16 0.06 97 1008.3
20260903104551 55 157 8.0 12.0 0.04 0.16 0.06 97 1008.3
20260903104023 55 153 7.0 12.0 0.03 0.15 0.05 98 1008.2
20260903103528 55 165 5.0 10.0 0.03 0.14 0.04 98 1008.2
20260903103052 54 146 7.0 10.0 0.03 0.14 0.04 98 1008.2
20260903102527 54 164 4.0 10.0 0.02 0.13 0.03 98 1008.2
20260903102023 53 167 1.0 5.0 0.02 0.13 0.03 98 1008.1
20260903101554 53 0 0.0 1.0 0.01 0.12 0.02 98 1008.2
20260903101023 53 0 0.0 1.0 0.01 0.12 0.02 98 1008.1
20260903100524 53 0 0.0 1.0 0.01 0.12 0.02 98 1008.1
20260903100050 52 0 0.0 1.0 0.01 0.12 0.02 98 1008.2
20260903095525 52 0 0.0 1.0 0.01 0.12 0.02 98 1008.1
20260903095026 52 270 0.0 2.0 0.01 0.12 0.02 98 1008.0
20260903094551 52 0 0.0 2.0 0.01 0.12 0.02 98 1008.0
20260903094026 52 262 0.0 2.0 0.01 0.12 0.02 98 1007.9
20260903093527 51 340 1.0 2.0 0.00 0.11 0.01 97 1007.9
20260903093117 51 5 0.0 1.0 0.00 0.11 0.01 97 1008.0
20260903092524 51 0 0.0 2.0 0.00 0.11 0.01 97 1007.9
20260903092026 51 0 0.0 2.0 0.00 0.11 0.01 97 1008.0
20260903091549 51 352 0.0 1.0 0.00 0.11 0.01 98 1008.1
20260903091024 51 22 0.0 2.0 0.00 0.11 0.01 97 1008.0
20260903090524 51 22 0.0 2.0 0.00 0.11 0.01 97 1008.1
20260903090048 50 23 0.0 1.0 0.00 0.11 0.01 97 1008.0
20260903085523 50 24 0.0 1.0 0.00 0.11 0.01 97 1008.1
20260903085026 50 0 0.0 1.0 0.00 0.11 0.01 97 1008.1
20260903084552 50 0 0.0 1.0 0.00 0.11 0.01 97 1008.1
20260903084027 50 330 0.0 1.0 0.00 0.11 0.01 97 1008.0
20260903083524 50 330 0.0 1.0 0.00 0.11 0.01 97 1008.1
20260903083050 50 330 0.0 1.0 0.00 0.11 0.01 97 1008.2
20260903082524 50 330 0.0 1.0 0.00 0.11 0.01 96 1008.1
20260903082025 51 320 0.0 1.0 0.00 0.11 0.01 97 1008.2
20260903081548 51 308 0.0 1.0 0.00 0.11 0.01 96 1008.0
20260903081024 51 0 0.0 0.0 0.00 0.11 0.01 96 1008.1
20260903080527 51 0 0.0 0.0 0.00 0.11 0.01 97 1008.0
20260903080058 51 307 0.0 1.0 0.01 0.11 0.01 97 1008.0
20260903075524 51 306 0.0 2.0 0.01 0.11 0.01 96 1008.1
20260903075026 51 306 1.0 2.0 0.01 0.11 0.01 96 1008.0
20260903074607 52 314 1.0 2.0 0.02 0.11 0.01 97 1007.8
20260903074027 52 0 0.0 1.0 0.02 0.11 0.01 97 1007.9
20260903073524 52 0 0.0 1.0 0.02 0.11 0.01 97 1007.9
20260903073059 51 0 0.0 1.0 0.02 0.11 0.01 97 1007.9
20260903072524 51 0 0.0 1.0 0.02 0.11 0.01 97 1008.0
20260903072025 51 76 0.0 1.0 0.02 0.11 0.01 97 1007.9
20260903071548 51 78 0.0 0.0 0.02 0.11 0.01 97 1007.9
20260903071027 51 0 0.0 0.0 0.02 0.11 0.01 97 1007.8
20260903070523 51 0 0.0 1.0 0.02 0.11 0.01 96 1007.8
20260903070051 50 0 0.0 1.0 0.01 0.10 0.00 96 1007.8
20260903065527 50 0 0.0 1.0 0.01 0.10 0.10 96 1007.8
20260903065023 50 0 0.0 1.0 0.01 0.10 0.10 96 1007.9
20260903064549 50 0 0.0 1.0 0.00 0.09 0.09 96 1007.9
20260903064025 50 78 0.0 1.0 0.00 0.09 0.09 96 1007.8
20260903063526 50 0 0.0 0.0 0.00 0.09 0.09 96 1007.8
20260903063046 50 0 0.0 0.0 0.00 0.09 0.09 96 1007.8
20260903062524 50 0 0.0 0.0 0.00 0.09 0.09 96 1007.9
20260903062028 50 0 0.0 0.0 0.00 0.09 0.09 96 1007.9
20260903061546 50 0 0.0 0.0 0.00 0.09 0.09 96 1007.8
20260903061029 49 0 0.0 0.0 0.00 0.09 0.09 96 1007.8
20260903060527 49 0 0.0 0.0 0.00 0.09 0.09 95 1007.8
20260903060054 49 0 0.0 0.0 0.00 0.09 0.09 95 1007.9
20260903055524 49 0 0.0 0.0 0.00 0.09 0.09 95 1007.8
20260903055024 50 0 0.0 0.0 0.00 0.09 0.09 95 1007.9
20260903054550 50 0 0.0 0.0 0.00 0.09 0.09 95 1007.8
20260903054024 50 0 0.0 0.0 0.00 0.09 0.09 95 1007.8
20260903053523 50 0 0.0 0.0 0.00 0.09 0.09 95 1007.9
20260903053043 50 0 0.0 0.0 0.00 0.09 0.09 95 1007.8
20260903052527 50 0 0.0 0.0 0.00 0.09 0.09 95 1007.8
20260903052025 50 0 0.0 0.0 0.00 0.09 0.09 95 1007.8
20260903051550 50 0 0.0 0.0 0.00 0.09 0.09 94 1007.7
20260903051024 50 0 0.0 0.0 0.00 0.09 0.09 94 1007.8
20260903050525 50 0 0.0 0.0 0.00 0.09 0.09 94 1007.7
20260903050052 51 0 0.0 0.0 0.00 0.09 0.09 94 1007.7
20260903045524 51 0 0.0 1.0 0.00 0.09 0.09 94 1007.8
20260903045024 51 0 0.0 1.0 0.00 0.09 0.09 94 1007.7
20260903044548 51 78 0.0 1.0 0.00 0.09 0.09 94 1007.7
20260903044026 51 98 0.0 1.0 0.00 0.09 0.09 93 1007.7
20260903043530 51 101 0.0 1.0 0.00 0.09 0.09 93 1007.6
20260903043050 51 101 0.0 0.0 0.00 0.09 0.09 92 1007.6
20260903042523 52 0 0.0 1.0 0.00 0.09 0.09 92 1007.5
20260903042024 52 0 0.0 1.0 0.00 0.09 0.09 92 1007.6
20260903041548 53 100 0.0 1.0 0.00 0.09 0.09 92 1007.6
20260903041025 53 0 0.0 1.0 0.00 0.09 0.09 92 1007.6
20260903040524 53 0 0.0 1.0 0.00 0.09 0.09 91 1007.4